INDIA1 VIDP-RJAA

Flight info

Callsign INDIA1
Flight time N/A
Altitude 35000
Route LKN7C LKN A201 LSO A599 SGM A581 WHA R343 PK A593 SADLI Y590 BEDAR Y591 FUE Y23 KASTE Y81 RUTAS
Aircraft B77W/H-SADE1E2E3FGHIJ2J3J4J5J6J7M1M3P1P2P3RUWXYZ/LB1D1

Departure

Time 2026-04-29 18:19
Airport Indira Gandhi International Airport (VIDP)

Arrival

Time N/A
Airport Narita International Airport (RJAA)
Time Latitude Longitude Altitude Speed Heading
2026-04-29 18:10 28.57238 77.11373 750 ft 0 kts 122°
2026-04-29 18:14 28.57225 77.11394 751 ft 8 kts 129°
2026-04-29 18:14 28.57158 77.11457 751 ft 13 kts 144°
2026-04-29 18:14 28.57095 77.11538 752 ft 17 kts 126°
2026-04-29 18:14 28.56998 77.11626 751 ft 22 kts 172°
2026-04-29 18:15 28.56863 77.11625 752 ft 6 kts 203°
2026-04-29 18:15 28.56842 77.11480 751 ft 31 kts 272°
2026-04-29 18:15 28.56851 77.11242 753 ft 30 kts 273°
2026-04-29 18:15 28.56856 77.11004 755 ft 30 kts 271°
2026-04-29 18:16 28.56863 77.10766 755 ft 30 kts 272°
2026-04-29 18:16 28.56868 77.10532 751 ft 30 kts 268°
2026-04-29 18:16 28.56870 77.10295 751 ft 30 kts 271°
2026-04-29 18:16 28.56875 77.10058 752 ft 30 kts 272°
2026-04-29 18:17 28.56884 77.09822 751 ft 30 kts 272°
2026-04-29 18:17 28.56889 77.09584 755 ft 30 kts 272°
2026-04-29 18:17 28.56893 77.09347 755 ft 30 kts 269°
2026-04-29 18:17 28.56893 77.09109 755 ft 30 kts 272°
2026-04-29 18:18 28.56908 77.08895 752 ft 19 kts 296°
2026-04-29 18:18 28.57016 77.08873 752 ft 15 kts 22°
2026-04-29 18:18 28.57051 77.08986 754 ft 22 kts 93°
2026-04-29 18:18 28.57041 77.09472 757 ft 109 kts 91°
2026-04-29 18:19 28.57018 77.10683 789 ft 189 kts 92°
2026-04-29 18:19 28.56964 77.12218 1166 ft 209 kts 93°
2026-04-29 18:19 28.56884 77.14023 1704 ft 246 kts 93°
2026-04-29 18:19 28.56838 77.15997 2425 ft 257 kts 91°
2026-04-29 18:20 28.56796 77.18079 3197 ft 269 kts 91°
2026-04-29 18:20 28.56751 77.20249 4007 ft 279 kts 91°
2026-04-29 18:20 28.56703 77.22484 4871 ft 286 kts 91°
2026-04-29 18:20 28.56652 77.24770 5775 ft 292 kts 91°
2026-04-29 18:21 28.56599 77.27096 6654 ft 297 kts 91°
2026-04-29 18:21 28.56545 77.29465 7549 ft 301 kts 91°
2026-04-29 18:21 28.56379 77.31847 8337 ft 306 kts 105°
2026-04-29 18:21 28.55504 77.34069 9004 ft 312 kts 120°
2026-04-29 18:22 28.54402 77.36225 9836 ft 317 kts 121°
2026-04-29 18:22 28.53256 77.38442 10421 ft 334 kts 121°
2026-04-29 18:22 28.52051 77.40793 10645 ft 363 kts 121°
2026-04-29 18:22 28.50742 77.43381 10854 ft 391 kts 120°
2026-04-29 18:23 28.49371 77.46132 11410 ft 405 kts 120°
2026-04-29 18:23 28.47979 77.48952 12165 ft 413 kts 120°
2026-04-29 18:23 28.46572 77.51826 13057 ft 417 kts 120°
2026-04-29 18:23 28.45158 77.54725 13901 ft 421 kts 120°
2026-04-29 18:24 28.43749 77.57622 14705 ft 425 kts 120°
2026-04-29 18:24 28.42306 77.60587 15504 ft 429 kts 120°
2026-04-29 18:24 28.40853 77.63573 16298 ft 434 kts 120°
2026-04-29 18:24 28.39381 77.66596 17095 ft 439 kts 120°
2026-04-29 18:25 28.37896 77.69644 17890 ft 443 kts 119°
2026-04-29 18:25 28.36392 77.72728 18556 ft 448 kts 119°
2026-04-29 18:25 28.34872 77.75840 19201 ft 453 kts 119°
2026-04-29 18:25 28.33355 77.78945 19860 ft 458 kts 119°
2026-04-29 18:26 28.31796 77.82134 20533 ft 463 kts 119°
2026-04-29 18:26 28.30222 77.85351 21208 ft 467 kts 119°
2026-04-29 18:26 28.28635 77.88591 21844 ft 472 kts 119°
2026-04-29 18:26 28.27032 77.91861 22452 ft 477 kts 119°
2026-04-29 18:27 28.25408 77.95171 23076 ft 481 kts 119°
2026-04-29 18:27 28.23793 77.98461 23602 ft 485 kts 120°
2026-04-29 18:27 28.22141 78.01823 24144 ft 488 kts 120°
2026-04-29 18:27 28.20485 78.05190 24691 ft 491 kts 120°
2026-04-29 18:28 28.18817 78.08581 25223 ft 494 kts 120°
2026-04-29 18:28 28.17135 78.11995 25732 ft 497 kts 120°
2026-04-29 18:28 28.15439 78.15434 26222 ft 501 kts 120°
2026-04-29 18:28 28.13727 78.18904 26694 ft 505 kts 120°
2026-04-29 18:29 28.12027 78.22347 27147 ft 509 kts 120°
2026-04-29 18:29 28.10857 78.24714 27450 ft 511 kts 121°
2026-04-29 18:29 28.08541 78.29398 28039 ft 516 kts 121°
2026-04-29 18:29 28.06774 78.32967 28455 ft 519 kts 121°
2026-04-29 18:30 28.05018 78.36512 28845 ft 522 kts 121°
2026-04-29 18:30 28.03237 78.40104 29219 ft 525 kts 121°
2026-04-29 18:30 28.01442 78.43721 29582 ft 528 kts 121°
2026-04-29 18:30 27.99632 78.47364 29883 ft 531 kts 121°
2026-04-29 18:31 27.97815 78.51019 30174 ft 534 kts 121°
2026-04-29 18:31 27.95993 78.54682 30508 ft 534 kts 121°
2026-04-29 18:31 27.94165 78.58353 30866 ft 534 kts 121°
2026-04-29 18:31 27.92340 78.62017 31241 ft 534 kts 121°
2026-04-29 18:32 27.90512 78.65680 31586 ft 535 kts 121°
2026-04-29 18:32 27.86868 78.72975 32265 ft 536 kts 121°
2026-04-29 18:32 27.85035 78.76641 32612 ft 536 kts 121°
2026-04-29 18:33 27.83199 78.80309 32962 ft 536 kts 121°
2026-04-29 18:33 27.81360 78.83978 33311 ft 536 kts 121°
2026-04-29 18:33 27.79525 78.87637 33646 ft 536 kts 121°
2026-04-29 18:33 27.77691 78.91292 33934 ft 536 kts 121°
2026-04-29 18:34 27.75847 78.94963 34188 ft 536 kts 121°
2026-04-29 18:34 27.74624 78.97397 34348 ft 536 kts 121°
2026-04-29 18:34 27.72156 79.02303 34702 ft 537 kts 121°
2026-04-29 18:34 27.70314 79.05959 34961 ft 537 kts 121°
2026-04-29 18:35 27.68488 79.09582 35208 ft 537 kts 121°
2026-04-29 18:35 27.66639 79.13247 35450 ft 538 kts 120°
2026-04-29 18:35 27.64782 79.16926 35695 ft 538 kts 120°
2026-04-29 18:35 27.62929 79.20591 35939 ft 538 kts 120°
2026-04-29 18:36 27.61077 79.24253 36199 ft 537 kts 120°
2026-04-29 18:36 27.59225 79.27911 36442 ft 537 kts 120°
2026-04-29 18:36 27.57369 79.31575 36580 ft 540 kts 120°
2026-04-29 18:36 27.55498 79.35263 36617 ft 541 kts 120°
2026-04-29 18:37 27.51795 79.42558 36642 ft 537 kts 120°
2026-04-29 18:37 27.48092 79.49838 36652 ft 533 kts 120°
2026-04-29 18:38 27.44414 79.57057 36656 ft 531 kts 120°
2026-04-29 18:38 27.40736 79.64264 36663 ft 530 kts 120°
2026-04-29 18:39 27.37057 79.71460 36663 ft 530 kts 120°
2026-04-29 18:39 27.33392 79.78620 36662 ft 531 kts 120°
2026-04-29 18:40 27.29693 79.85832 36659 ft 531 kts 120°
2026-04-29 18:40 27.25987 79.93044 36660 ft 532 kts 120°
2026-04-29 18:41 27.18576 80.07435 36672 ft 531 kts 120°
2026-04-29 18:42 27.14889 80.14576 36654 ft 530 kts 120°
2026-04-29 18:42 27.11188 80.21733 36647 ft 529 kts 121°
2026-04-29 18:43 27.07491 80.28871 36665 ft 528 kts 121°
2026-04-29 18:43 27.03798 80.35989 36674 ft 527 kts 121°
2026-04-29 18:44 27.00113 80.43079 36667 ft 526 kts 121°
2026-04-29 18:44 26.96423 80.50169 36659 ft 526 kts 121°
2026-04-29 18:45 26.92760 80.57195 36676 ft 525 kts 121°
2026-04-29 18:45 26.89065 80.64272 36680 ft 526 kts 121°
2026-04-29 18:46 26.85371 80.71336 36687 ft 526 kts 121°
2026-04-29 18:46 26.81662 80.78419 36694 ft 526 kts 121°
2026-04-29 18:47 26.78577 80.84301 36694 ft 527 kts 121°
2026-04-29 18:47 26.74902 80.92909 36699 ft 528 kts 109°
2026-04-29 18:48 26.73132 80.99508 36704 ft 528 kts 106°
2026-04-29 18:48 26.71135 81.07401 36684 ft 528 kts 106°
2026-04-29 18:49 26.69114 81.15246 36681 ft 527 kts 107°
2026-04-29 18:49 26.67046 81.23115 36676 ft 526 kts 107°
2026-04-29 18:50 26.64966 81.30964 36673 ft 525 kts 107°
2026-04-29 18:50 26.62892 81.38779 36670 ft 524 kts 107°
2026-04-29 18:51 26.60820 81.46574 36671 ft 522 kts 107°
2026-04-29 18:51 26.58764 81.54297 36673 ft 520 kts 107°
2026-04-29 18:52 26.56701 81.62029 36674 ft 519 kts 107°
2026-04-29 18:52 26.54636 81.69748 36672 ft 518 kts 107°
2026-04-29 18:53 26.52569 81.77452 36673 ft 516 kts 108°
2026-04-29 18:53 26.50506 81.85127 36673 ft 515 kts 108°
2026-04-29 18:54 26.48443 81.92784 36676 ft 514 kts 108°
2026-04-29 18:54 26.46394 82.00373 36675 ft 513 kts 108°
2026-04-29 18:55 26.44327 82.08007 36677 ft 513 kts 108°
2026-04-29 18:55 26.42262 82.15619 36679 ft 512 kts 108°
2026-04-29 18:56 26.40195 82.23222 36678 ft 512 kts 108°
2026-04-29 18:56 26.38123 82.30822 36676 ft 511 kts 108°
2026-04-29 18:57 26.36051 82.38407 36680 ft 511 kts 108°
2026-04-29 18:57 26.33989 82.45939 36697 ft 511 kts 108°
2026-04-29 18:58 26.31908 82.53522 36698 ft 511 kts 108°
2026-04-29 18:58 26.29826 82.61089 36695 ft 510 kts 108°
2026-04-29 18:59 26.27743 82.68645 36699 ft 510 kts 108°
2026-04-29 18:59 26.25657 82.76194 36706 ft 509 kts 108°
2026-04-29 19:00 26.23571 82.83728 36771 ft 508 kts 108°
2026-04-29 19:00 26.21499 82.91195 36714 ft 507 kts 108°
2026-04-29 19:01 26.19413 82.98693 36725 ft 506 kts 108°
2026-04-29 19:01 26.17328 83.06172 36719 ft 504 kts 108°
2026-04-29 19:02 26.15598 83.12368 36725 ft 502 kts 108°
2026-04-29 19:02 26.13191 83.20967 36732 ft 500 kts 108°
2026-04-29 19:03 26.11122 83.28340 36727 ft 498 kts 109°
2026-04-29 19:03 26.09055 83.35688 36725 ft 496 kts 108°
2026-04-29 19:04 26.06991 83.43011 36733 ft 496 kts 109°
2026-04-29 19:04 26.04920 83.50350 36741 ft 497 kts 109°
2026-04-29 19:05 26.02855 83.57650 36745 ft 499 kts 109°
2026-04-29 19:05 26.00766 83.65025 36746 ft 502 kts 109°
2026-04-29 19:06 25.98661 83.72453 36746 ft 504 kts 109°
2026-04-29 19:07 25.95773 83.82630 36743 ft 505 kts 109°
2026-04-29 19:07 25.93655 83.90072 36737 ft 505 kts 109°
2026-04-29 19:08 25.91531 83.97518 36735 ft 505 kts 110°
2026-04-29 19:08 25.89420 84.04903 36736 ft 504 kts 110°
2026-04-29 19:09 25.87298 84.12312 36735 ft 503 kts 110°
2026-04-29 19:09 25.85169 84.19724 36737 ft 503 kts 110°
2026-04-29 19:10 25.83044 84.27112 36736 ft 502 kts 110°
2026-04-29 19:10 25.80926 84.34460 36739 ft 502 kts 110°
2026-04-29 19:11 25.78793 84.41840 36742 ft 502 kts 110°
2026-04-29 19:11 25.76657 84.49218 36744 ft 502 kts 110°
2026-04-29 19:12 25.74511 84.56615 36747 ft 502 kts 110°
2026-04-29 19:12 25.72365 84.63997 36746 ft 502 kts 110°
2026-04-29 19:13 25.70230 84.71327 36746 ft 502 kts 110°
2026-04-29 19:13 25.68083 84.78682 36738 ft 501 kts 111°
2026-04-29 19:14 25.65932 84.86037 36734 ft 500 kts 111°
2026-04-29 19:14 25.63787 84.93355 36726 ft 499 kts 111°
2026-04-29 19:15 25.61643 85.00657 36721 ft 498 kts 111°
2026-04-29 19:15 25.59518 85.07894 36719 ft 496 kts 110°
2026-04-29 19:16 25.57945 85.15341 36725 ft 496 kts 104°
2026-04-29 19:16 25.56687 85.22851 36721 ft 494 kts 103°
2026-04-29 19:17 25.55428 85.30312 36731 ft 492 kts 104°
2026-04-29 19:17 25.54138 85.37738 36736 ft 489 kts 104°
2026-04-29 19:18 25.52838 85.45116 36748 ft 487 kts 104°
2026-04-29 19:18 25.51547 85.52418 36752 ft 485 kts 104°
2026-04-29 19:19 25.50252 85.59731 36756 ft 483 kts 104°
2026-04-29 19:19 25.48958 85.67024 36756 ft 482 kts 104°
2026-04-29 19:20 25.47813 85.73461 36761 ft 481 kts 104°
2026-04-29 19:20 25.46524 85.80682 36753 ft 480 kts 104°
2026-04-29 19:21 25.45225 85.87934 36756 ft 480 kts 104°
2026-04-29 19:21 25.43921 85.95198 36761 ft 480 kts 104°
2026-04-29 19:22 25.42615 86.02450 36760 ft 481 kts 104°
2026-04-29 19:22 25.41304 86.09712 36761 ft 482 kts 104°
2026-04-29 19:23 25.39985 86.16997 36763 ft 483 kts 104°
2026-04-29 19:23 25.38662 86.24283 36764 ft 484 kts 104°
2026-04-29 19:24 25.37341 86.31537 36765 ft 484 kts 104°
2026-04-29 19:24 25.36007 86.38846 36762 ft 484 kts 104°
2026-04-29 19:25 25.34226 86.45977 36770 ft 479 kts 114°
2026-04-29 19:25 25.31509 86.52666 36775 ft 476 kts 118°
2026-04-29 19:26 25.28708 86.59282 36761 ft 475 kts 118°
2026-04-29 19:26 25.25950 86.65860 36765 ft 474 kts 117°
2026-04-29 19:27 25.23195 86.72476 36770 ft 474 kts 117°
2026-04-29 19:27 25.20443 86.79090 36774 ft 474 kts 117°
2026-04-29 19:28 25.17684 86.85710 36782 ft 474 kts 117°
2026-04-29 19:28 25.14918 86.92334 36785 ft 475 kts 117°
2026-04-29 19:29 25.12163 86.98919 36793 ft 475 kts 117°
2026-04-29 19:29 25.09391 87.05538 36800 ft 475 kts 117°
2026-04-29 19:30 25.06611 87.12164 36801 ft 475 kts 118°
2026-04-29 19:30 25.03831 87.18782 36819 ft 476 kts 118°
2026-04-29 19:31 25.01040 87.25412 36828 ft 476 kts 118°
2026-04-29 19:31 24.98242 87.32050 36831 ft 478 kts 118°
2026-04-29 19:32 24.95454 87.38657 36841 ft 479 kts 118°
2026-04-29 19:32 24.92628 87.45342 36847 ft 482 kts 118°
2026-04-29 19:33 24.89782 87.52063 36856 ft 485 kts 118°
2026-04-29 19:33 24.86937 87.58775 36871 ft 488 kts 118°
2026-04-29 19:34 24.84052 87.65571 36887 ft 492 kts 118°
2026-04-29 19:34 24.81138 87.72424 36892 ft 496 kts 118°
2026-04-29 19:35 24.78196 87.79335 36898 ft 500 kts 118°
2026-04-29 19:35 24.75286 87.86327 36902 ft 504 kts 117°
2026-04-29 19:36 24.72416 87.93349 36895 ft 508 kts 117°
2026-04-29 19:36 24.69970 87.99298 36899 ft 510 kts 117°
2026-04-29 19:37 24.67039 88.06376 36895 ft 513 kts 117°
2026-04-29 19:37 24.64048 88.13530 36908 ft 516 kts 117°
2026-04-29 19:38 24.61033 88.20726 36897 ft 519 kts 116°
2026-04-29 19:38 24.58006 88.27953 36889 ft 522 kts 116°
2026-04-29 19:39 24.54961 88.35216 36899 ft 524 kts 116°
2026-04-29 19:39 24.51896 88.42513 36895 ft 526 kts 116°
2026-04-29 19:40 24.48834 88.49794 36876 ft 527 kts 116°
2026-04-29 19:40 24.45755 88.57101 36876 ft 528 kts 116°
2026-04-29 19:41 24.43188 88.64615 36877 ft 530 kts 105°
2026-04-29 19:41 24.41594 88.72517 36879 ft 530 kts 102°
2026-04-29 19:42 24.40080 88.80441 36886 ft 531 kts 102°
2026-04-29 19:42 24.38519 88.88379 36882 ft 532 kts 102°
2026-04-29 19:43 24.36925 88.96306 36880 ft 532 kts 102°
2026-04-29 19:43 24.35317 89.04238 36880 ft 533 kts 102°
2026-04-29 19:44 24.33707 89.12174 36877 ft 533 kts 102°
2026-04-29 19:44 24.32103 89.20069 36878 ft 533 kts 102°
2026-04-29 19:45 24.30486 89.28013 36878 ft 534 kts 102°
2026-04-29 19:45 24.28859 89.35980 36874 ft 534 kts 102°
2026-04-29 19:46 24.27241 89.43878 36875 ft 534 kts 102°
2026-04-29 19:46 24.25608 89.51831 36880 ft 534 kts 102°
2026-04-29 19:47 24.23970 89.59783 36872 ft 534 kts 102°
2026-04-29 19:47 24.22331 89.67720 36877 ft 534 kts 102°
2026-04-29 19:48 24.20685 89.75665 36875 ft 534 kts 103°
2026-04-29 19:48 24.19050 89.83537 36877 ft 534 kts 103°
2026-04-29 19:49 24.17401 89.91460 36881 ft 533 kts 103°
2026-04-29 19:49 24.15744 89.99395 36882 ft 533 kts 103°
2026-04-29 19:50 24.14087 90.07307 36875 ft 533 kts 103°
2026-04-29 19:50 24.12426 90.15220 36877 ft 533 kts 103°
2026-04-29 19:51 24.10761 90.23131 36877 ft 532 kts 103°
2026-04-29 19:51 24.09105 90.30977 36872 ft 532 kts 103°
2026-04-29 19:52 24.07437 90.38866 36867 ft 531 kts 103°
2026-04-29 19:52 24.05759 90.46742 36865 ft 531 kts 104°
2026-04-29 19:53 24.04072 90.54584 36866 ft 530 kts 104°
2026-04-29 19:53 24.02376 90.62449 36871 ft 529 kts 104°
2026-04-29 19:54 23.99849 90.74149 36873 ft 528 kts 104°
2026-04-29 19:54 23.98154 90.81974 36871 ft 527 kts 104°
2026-04-29 19:55 23.96459 90.89783 36871 ft 526 kts 104°
2026-04-29 19:55 23.94778 90.97504 36871 ft 525 kts 104°
2026-04-29 19:56 23.93082 91.05270 36874 ft 525 kts 104°
2026-04-29 19:56 23.91383 91.13036 36876 ft 524 kts 105°
2026-04-29 19:57 23.89972 91.19473 36875 ft 524 kts 105°
2026-04-29 19:57 23.88022 91.28543 36876 ft 524 kts 104°
2026-04-29 19:58 23.86493 91.36287 36872 ft 524 kts 103°
2026-04-29 19:58 23.84972 91.44065 36874 ft 524 kts 103°
2026-04-29 19:59 23.83426 91.51852 36873 ft 523 kts 104°
2026-04-29 19:59 23.81875 91.59576 36872 ft 524 kts 104°
2026-04-29 20:00 23.80311 91.67341 36871 ft 524 kts 104°
2026-04-29 20:00 23.78739 91.75126 36873 ft 524 kts 104°
2026-04-29 20:01 23.77165 91.82905 36878 ft 524 kts 104°
2026-04-29 20:01 23.75598 91.90632 36872 ft 524 kts 104°
2026-04-29 20:02 23.74016 91.98411 36870 ft 524 kts 104°
2026-04-29 20:02 23.72701 92.04859 36874 ft 523 kts 104°
2026-04-29 20:03 23.70848 92.13922 36870 ft 523 kts 104°
2026-04-29 20:03 23.69269 92.21621 36872 ft 522 kts 104°
2026-04-29 20:04 23.67681 92.29349 36877 ft 521 kts 104°
2026-04-29 20:04 23.66090 92.37066 36878 ft 521 kts 104°
2026-04-29 20:05 23.64504 92.44748 36868 ft 521 kts 104°
2026-04-29 20:05 23.62907 92.52452 36881 ft 521 kts 104°
2026-04-29 20:06 23.61308 92.60157 36888 ft 521 kts 104°
2026-04-29 20:06 23.59763 92.67879 36891 ft 521 kts 103°
2026-04-29 20:07 23.58348 92.75634 36890 ft 520 kts 103°
2026-04-29 20:07 23.56940 92.83377 36910 ft 520 kts 103°
2026-04-29 20:08 23.55748 92.89820 36908 ft 520 kts 103°
2026-04-29 20:08 23.54067 92.98805 36910 ft 520 kts 103°
2026-04-29 20:09 23.52618 93.06526 36927 ft 520 kts 103°
2026-04-29 20:09 23.51161 93.14271 36943 ft 521 kts 103°
2026-04-29 20:10 23.49704 93.22009 36955 ft 522 kts 103°
2026-04-29 20:10 23.48245 93.29725 36942 ft 523 kts 103°
2026-04-29 20:11 23.46774 93.37491 36940 ft 523 kts 103°
2026-04-29 20:11 23.45302 93.45251 36956 ft 524 kts 103°
2026-04-29 20:12 23.44343 93.53146 36939 ft 525 kts 97°
2026-04-29 20:12 23.43630 93.61067 36948 ft 525 kts 97°
2026-04-29 20:13 23.43031 93.67654 36925 ft 525 kts 98°
2026-04-29 20:13 23.42155 93.76832 36919 ft 524 kts 98°
2026-04-29 20:14 23.41385 93.84710 36916 ft 521 kts 98°
2026-04-29 20:14 23.40609 93.92551 36892 ft 521 kts 98°
2026-04-29 20:15 23.39834 94.00349 36884 ft 521 kts 98°
2026-04-29 20:15 23.39053 94.08215 36866 ft 523 kts 98°
2026-04-29 20:16 23.38267 94.16106 36855 ft 524 kts 98°
2026-04-29 20:16 23.37479 94.23961 36846 ft 525 kts 98°
2026-04-29 20:17 23.36676 94.31910 36833 ft 525 kts 98°
2026-04-29 20:17 23.35879 94.39765 36840 ft 526 kts 98°
2026-04-29 20:18 23.35071 94.47693 36838 ft 527 kts 98°
2026-04-29 20:18 23.34259 94.55622 36838 ft 527 kts 98°
2026-04-29 20:19 23.33442 94.63561 36838 ft 527 kts 98°
2026-04-29 20:19 23.32620 94.71507 36837 ft 528 kts 99°
2026-04-29 20:20 23.31800 94.79400 36841 ft 528 kts 99°
2026-04-29 20:20 23.30971 94.87327 36843 ft 527 kts 99°
2026-04-29 20:21 23.30139 94.95256 36840 ft 527 kts 99°
2026-04-29 20:21 23.29303 95.03173 36836 ft 527 kts 99°
2026-04-29 20:22 23.28463 95.11101 36838 ft 526 kts 99°
2026-04-29 20:22 23.27625 95.18966 36833 ft 526 kts 99°
2026-04-29 20:23 23.26920 95.25546 36829 ft 526 kts 99°
2026-04-29 20:23 23.26072 95.33439 36823 ft 526 kts 99°
2026-04-29 20:24 23.25075 95.42664 36826 ft 525 kts 99°
2026-04-29 20:24 23.24361 95.49243 36820 ft 525 kts 99°
2026-04-29 20:25 23.23501 95.57133 36825 ft 525 kts 99°
2026-04-29 20:25 23.22495 95.66308 36826 ft 525 kts 99°
2026-04-29 20:26 23.21772 95.72875 36822 ft 525 kts 99°
2026-04-29 20:26 23.20898 95.80774 36825 ft 525 kts 99°
2026-04-29 20:27 23.20170 95.87334 36827 ft 525 kts 99°
2026-04-29 20:27 23.19146 95.96510 36825 ft 525 kts 99°
2026-04-29 20:28 23.18264 96.04388 36829 ft 525 kts 99°
2026-04-29 20:28 23.17375 96.12276 36831 ft 525 kts 99°
2026-04-29 20:29 23.16483 96.20161 36837 ft 525 kts 99°
2026-04-29 20:29 23.15591 96.28005 36835 ft 525 kts 99°
2026-04-29 20:30 23.14692 96.35885 36848 ft 525 kts 99°
2026-04-29 20:30 23.13789 96.43756 36851 ft 525 kts 99°
2026-04-29 20:31 23.12881 96.51645 36857 ft 525 kts 99°
2026-04-29 20:31 23.11968 96.59531 36866 ft 525 kts 99°
2026-04-29 20:32 23.11058 96.67369 36868 ft 525 kts 99°
2026-04-29 20:32 23.10138 96.75247 36877 ft 526 kts 99°
2026-04-29 20:33 23.09213 96.83135 36884 ft 526 kts 99°
2026-04-29 20:33 23.08291 96.90971 36899 ft 526 kts 99°
2026-04-29 20:34 23.07357 96.98867 36911 ft 526 kts 99°
2026-04-29 20:34 23.06421 97.06752 36910 ft 526 kts 99°
2026-04-29 20:35 23.05483 97.14615 36924 ft 525 kts 99°
2026-04-29 20:35 23.04540 97.22490 36929 ft 525 kts 99°
2026-04-29 20:36 23.03594 97.30344 36926 ft 524 kts 99°
2026-04-29 20:36 23.02651 97.38156 36925 ft 524 kts 99°
2026-04-29 20:37 23.01699 97.46012 36920 ft 524 kts 99°
2026-04-29 20:37 23.00742 97.53866 36916 ft 524 kts 99°
2026-04-29 20:38 22.99785 97.61700 36910 ft 524 kts 99°
2026-04-29 20:38 22.98847 97.69498 36918 ft 524 kts 96°
2026-04-29 20:39 22.99169 97.77402 36920 ft 525 kts 80°
2026-04-29 20:39 23.01195 97.84995 36930 ft 524 kts 69°
2026-04-29 20:40 23.03825 97.92386 36930 ft 524 kts 68°
2026-04-29 20:40 23.06428 97.99747 36933 ft 525 kts 69°
2026-04-29 20:41 23.08984 98.07178 36938 ft 526 kts 69°
2026-04-29 20:41 23.11517 98.14633 36939 ft 526 kts 69°
2026-04-29 20:42 23.14050 98.22098 36947 ft 526 kts 69°
2026-04-29 20:42 23.16582 98.29563 36944 ft 526 kts 69°
2026-04-29 20:43 23.19095 98.36978 36949 ft 525 kts 69°
2026-04-29 20:43 23.21621 98.44442 36952 ft 525 kts 69°
2026-04-29 20:44 23.24138 98.51898 36950 ft 525 kts 69°
2026-04-29 20:44 23.26653 98.59363 36946 ft 525 kts 69°
2026-04-29 20:45 23.29162 98.66821 36947 ft 525 kts 69°
2026-04-29 20:45 23.31652 98.74237 36950 ft 524 kts 69°
2026-04-29 20:46 23.34154 98.81694 36957 ft 525 kts 69°
2026-04-29 20:46 23.36656 98.89169 36957 ft 525 kts 69°
2026-04-29 20:47 23.39095 98.96632 36966 ft 526 kts 70°
2026-04-29 20:47 23.41435 99.04184 36972 ft 526 kts 71°
2026-04-29 20:48 23.43767 99.11732 36974 ft 526 kts 70°
2026-04-29 20:48 23.46114 99.19273 36970 ft 525 kts 70°
2026-04-29 20:49 23.48461 99.26811 36983 ft 525 kts 71°
2026-04-29 20:49 23.50796 99.34330 36974 ft 523 kts 70°
2026-04-29 20:50 23.53304 99.41709 36977 ft 521 kts 64°
2026-04-29 20:50 23.56767 99.48632 36989 ft 519 kts 58°
2026-04-29 20:51 23.60412 99.55444 36990 ft 520 kts 58°
2026-04-29 20:51 23.64025 99.62277 36989 ft 520 kts 59°
2026-04-29 20:52 23.67609 99.69149 37000 ft 520 kts 59°
2026-04-29 20:52 23.71164 99.75993 37004 ft 521 kts 59°
2026-04-29 20:53 23.74743 99.82891 36999 ft 522 kts 59°
2026-04-29 20:53 23.78321 99.89789 37010 ft 523 kts 59°
2026-04-29 20:54 23.83697 100.00172 36999 ft 523 kts 59°
2026-04-29 20:55 23.87280 100.07104 37001 ft 523 kts 59°
2026-04-29 20:55 23.90832 100.13986 37013 ft 523 kts 59°
2026-04-29 20:56 23.94407 100.20924 37015 ft 523 kts 59°
2026-04-29 20:56 23.97982 100.27868 37015 ft 523 kts 59°
2026-04-29 20:57 24.01548 100.34806 37028 ft 523 kts 59°
2026-04-29 20:57 24.05086 100.41703 37030 ft 523 kts 59°
2026-04-29 20:58 24.08648 100.48656 37036 ft 523 kts 59°
2026-04-29 20:58 24.12209 100.55614 37045 ft 524 kts 59°
2026-04-29 20:59 24.15745 100.62614 37039 ft 525 kts 59°
2026-04-29 20:59 24.19255 100.69640 37049 ft 525 kts 59°
2026-04-29 21:00 24.22768 100.76677 37060 ft 526 kts 59°
2026-04-29 21:00 24.26259 100.83668 37054 ft 526 kts 59°
2026-04-29 21:01 24.29774 100.90708 37065 ft 526 kts 59°
2026-04-29 21:01 24.33280 100.97744 37077 ft 526 kts 59°
2026-04-29 21:02 24.36790 101.04801 37073 ft 526 kts 59°
2026-04-29 21:02 24.40298 101.11864 37074 ft 526 kts 59°
2026-04-29 21:03 24.43772 101.18867 37082 ft 526 kts 59°
2026-04-29 21:03 24.47239 101.25867 37084 ft 525 kts 59°
2026-04-29 21:04 24.50728 101.32920 37087 ft 525 kts 59°
2026-04-29 21:04 24.54215 101.39983 37072 ft 525 kts 59°
2026-04-29 21:05 24.57667 101.46984 37085 ft 524 kts 59°
2026-04-29 21:05 24.61134 101.54026 37101 ft 524 kts 59°
2026-04-29 21:06 24.64591 101.61088 37093 ft 524 kts 60°
2026-04-29 21:06 24.68018 101.68174 37101 ft 524 kts 60°
2026-04-29 21:07 24.71414 101.75217 37109 ft 524 kts 60°
2026-04-29 21:07 24.74256 101.81108 37121 ft 524 kts 59°
2026-04-29 21:08 24.78261 101.89415 37128 ft 524 kts 59°
2026-04-29 21:08 24.81658 101.96472 37138 ft 525 kts 60°
2026-04-29 21:09 24.85081 102.03594 37136 ft 526 kts 59°
2026-04-29 21:09 24.88500 102.10719 37154 ft 525 kts 59°
2026-04-29 21:10 24.91910 102.17837 37166 ft 525 kts 59°
2026-04-29 21:10 24.95294 102.24913 37175 ft 525 kts 59°
2026-04-29 21:11 24.98696 102.32038 37188 ft 525 kts 59°
2026-04-29 21:11 25.01523 102.37967 37190 ft 524 kts 59°
2026-04-29 21:12 25.05470 102.46255 37198 ft 524 kts 59°
2026-04-29 21:12 25.09153 102.53155 37219 ft 520 kts 51°
2026-04-29 21:13 25.13736 102.59297 37239 ft 517 kts 45°
2026-04-29 21:13 25.17682 102.64257 37247 ft 517 kts 45°
2026-04-29 21:14 25.22398 102.70267 37253 ft 518 kts 45°
2026-04-29 21:14 25.27085 102.76316 37244 ft 519 kts 46°
2026-04-29 21:15 25.31756 102.82363 37264 ft 519 kts 46°
2026-04-29 21:15 25.36443 102.88430 37252 ft 518 kts 46°
2026-04-29 21:16 25.41040 102.94581 37266 ft 520 kts 51°
2026-04-29 21:16 25.45088 103.01259 37249 ft 522 kts 53°
2026-04-29 21:17 25.49684 103.09099 37240 ft 521 kts 53°
2026-04-29 21:17 25.52985 103.14681 37245 ft 520 kts 53°
2026-04-29 21:18 25.56972 103.21377 37247 ft 521 kts 53°
2026-04-29 21:18 25.60969 103.28081 37243 ft 521 kts 53°
2026-04-29 21:19 25.64962 103.34792 37241 ft 522 kts 53°
2026-04-29 21:19 25.68938 103.41490 37244 ft 523 kts 53°
2026-04-29 21:20 25.72933 103.48232 37227 ft 523 kts 53°
2026-04-29 21:20 25.76927 103.54981 37233 ft 523 kts 53°
2026-04-29 21:21 25.80925 103.61745 37223 ft 522 kts 53°
2026-04-29 21:21 25.84908 103.68494 37221 ft 522 kts 53°
2026-04-29 21:22 25.88861 103.75202 37293 ft 522 kts 53°
2026-04-29 21:22 25.92845 103.81972 37311 ft 523 kts 53°
2026-04-29 21:23 25.96824 103.88745 37304 ft 523 kts 53°
2026-04-29 21:23 26.00825 103.95502 37306 ft 523 kts 52°
2026-04-29 21:24 26.04854 104.02231 37295 ft 522 kts 52°
2026-04-29 21:24 26.08848 104.08911 37294 ft 521 kts 52°
2026-04-29 21:25 26.12864 104.15656 37284 ft 521 kts 52°
2026-04-29 21:25 26.16860 104.22384 37286 ft 520 kts 52°
2026-04-29 21:26 26.20848 104.29107 37290 ft 520 kts 52°
2026-04-29 21:26 26.24831 104.35829 37275 ft 519 kts 52°
2026-04-29 21:27 26.28777 104.42499 37267 ft 519 kts 52°
2026-04-29 21:27 26.32742 104.49212 37268 ft 518 kts 52°
2026-04-29 21:28 26.36701 104.55924 37251 ft 518 kts 52°
2026-04-29 21:28 26.40653 104.62635 37246 ft 517 kts 52°
2026-04-29 21:29 26.44600 104.69346 37261 ft 517 kts 52°
2026-04-29 21:29 26.48548 104.76070 37254 ft 518 kts 52°
2026-04-29 21:30 26.52499 104.82809 37242 ft 519 kts 52°
2026-04-29 21:30 26.56449 104.89555 37248 ft 519 kts 52°
2026-04-29 21:31 26.60399 104.96313 37243 ft 519 kts 52°
2026-04-29 21:31 26.64269 105.03088 37246 ft 522 kts 56°
2026-04-29 21:32 26.67440 105.10443 37240 ft 526 kts 62°
2026-04-29 21:32 26.70382 105.17951 37253 ft 526 kts 62°
2026-04-29 21:33 26.73343 105.25448 37253 ft 527 kts 62°
2026-04-29 21:33 26.76348 105.32954 37238 ft 527 kts 62°
2026-04-29 21:34 26.79332 105.40390 37269 ft 527 kts 62°
2026-04-29 21:34 26.82333 105.47884 37266 ft 528 kts 62°
2026-04-29 21:35 26.85337 105.55408 37244 ft 528 kts 62°
2026-04-29 21:35 26.88334 105.62933 37238 ft 528 kts 62°
2026-04-29 21:36 26.91322 105.70448 37252 ft 528 kts 62°
2026-04-29 21:36 26.94292 105.77930 37260 ft 528 kts 62°
2026-04-29 21:37 26.97277 105.85466 37263 ft 529 kts 62°
2026-04-29 21:37 27.00260 105.93009 37272 ft 529 kts 62°
2026-04-29 21:38 27.03221 106.00512 37264 ft 528 kts 62°
2026-04-29 21:38 27.06371 106.07939 37277 ft 526 kts 58°
2026-04-29 21:39 27.09744 106.15232 37281 ft 525 kts 58°
2026-04-29 21:39 27.13086 106.22479 37280 ft 525 kts 58°
2026-04-29 21:40 27.16428 106.29834 37288 ft 526 kts 58°
2026-04-29 21:40 27.19732 106.37125 37289 ft 527 kts 58°
2026-04-29 21:41 27.23062 106.44457 37292 ft 527 kts 58°
2026-04-29 21:41 27.26402 106.51801 37291 ft 527 kts 58°
2026-04-29 21:42 27.29735 106.59149 37302 ft 527 kts 58°
2026-04-29 21:42 27.33063 106.66501 37286 ft 528 kts 58°
2026-04-29 21:43 27.36388 106.73862 37295 ft 528 kts 58°
2026-04-29 21:43 27.39685 106.81196 37301 ft 529 kts 58°
2026-04-29 21:44 27.42992 106.88599 37307 ft 529 kts 58°
2026-04-29 21:44 27.46299 106.96004 37311 ft 530 kts 59°
2026-04-29 21:45 27.49632 107.03427 37301 ft 530 kts 58°
2026-04-29 21:45 27.53004 107.10833 37306 ft 531 kts 58°
2026-04-29 21:46 27.56376 107.18265 37301 ft 532 kts 58°
2026-04-29 21:46 27.59736 107.25707 37301 ft 533 kts 58°
2026-04-29 21:47 27.63072 107.33131 37305 ft 533 kts 58°
2026-04-29 21:47 27.66424 107.40605 37304 ft 534 kts 58°
2026-04-29 21:48 27.69778 107.48093 37303 ft 534 kts 58°
2026-04-29 21:48 27.73131 107.55594 37301 ft 535 kts 58°
2026-04-29 21:49 27.76485 107.63107 37304 ft 536 kts 58°
2026-04-29 21:49 27.79832 107.70625 37303 ft 536 kts 58°
2026-04-29 21:50 27.83162 107.78105 37306 ft 537 kts 58°
2026-04-29 21:50 27.86571 107.85616 37293 ft 536 kts 57°
2026-04-29 21:51 27.90006 107.93096 37312 ft 536 kts 57°
2026-04-29 21:51 27.95151 108.04359 37306 ft 538 kts 57°
2026-04-29 21:52 27.98580 108.11909 37302 ft 539 kts 57°
2026-04-29 21:52 28.01984 108.19419 37310 ft 540 kts 57°
2026-04-29 21:53 28.05405 108.26980 37313 ft 540 kts 57°
2026-04-29 21:53 28.08832 108.34565 37323 ft 541 kts 57°
2026-04-29 21:54 28.12260 108.42168 37299 ft 542 kts 57°
2026-04-29 21:54 28.15674 108.49751 37296 ft 542 kts 57°
2026-04-29 21:55 28.19106 108.57389 37303 ft 544 kts 57°
2026-04-29 21:55 28.22544 108.65054 37318 ft 545 kts 57°
2026-04-29 21:56 28.25980 108.72738 37296 ft 546 kts 57°
2026-04-29 21:56 28.29394 108.80380 37326 ft 546 kts 57°
2026-04-29 21:57 28.32829 108.88081 37305 ft 547 kts 57°
2026-04-29 21:57 28.36268 108.95810 37316 ft 548 kts 57°
2026-04-29 21:58 28.39678 109.03487 37308 ft 548 kts 57°
2026-04-29 21:58 28.43116 109.11245 37306 ft 548 kts 57°
2026-04-29 21:59 28.46541 109.18985 37305 ft 548 kts 57°
2026-04-29 21:59 28.49968 109.26744 37303 ft 549 kts 57°
2026-04-29 22:00 28.53389 109.34507 37300 ft 549 kts 57°
2026-04-29 22:00 28.56793 109.42247 37298 ft 550 kts 57°
2026-04-29 22:01 28.59905 109.50262 37299 ft 556 kts 63°
2026-04-29 22:01 28.62193 109.57127 37300 ft 558 kts 64°
2026-04-29 22:02 28.65435 109.66719 37307 ft 558 kts 63°
2026-04-29 22:02 28.67863 109.73584 37301 ft 557 kts 62°
2026-04-29 22:03 28.70805 109.81713 37301 ft 557 kts 62°
2026-04-29 22:03 28.73746 109.89878 37302 ft 557 kts 62°
2026-04-29 22:04 28.76671 109.98070 37309 ft 558 kts 62°
2026-04-29 22:04 28.79596 110.06294 37315 ft 560 kts 62°
2026-04-29 22:05 28.82504 110.14495 37303 ft 562 kts 62°
2026-04-29 22:06 28.86903 110.26932 37294 ft 562 kts 62°
2026-04-29 22:06 28.89825 110.35211 37306 ft 562 kts 62°
2026-04-29 22:07 28.92729 110.43457 37305 ft 563 kts 62°
2026-04-29 22:07 28.95649 110.51770 37301 ft 565 kts 62°
2026-04-29 22:08 28.98572 110.60111 37308 ft 566 kts 62°
2026-04-29 22:08 29.01496 110.68474 37281 ft 566 kts 62°
2026-04-29 22:09 29.04428 110.76843 37308 ft 566 kts 62°
2026-04-29 22:09 29.07374 110.85135 37302 ft 567 kts 62°
2026-04-29 22:10 29.10353 110.93522 37301 ft 569 kts 62°
2026-04-29 22:10 29.13327 111.01932 37295 ft 571 kts 62°
2026-04-29 22:11 29.16281 111.10322 37300 ft 571 kts 62°
2026-04-29 22:11 29.19249 111.18767 37280 ft 572 kts 62°
2026-04-29 22:12 29.22221 111.27248 37274 ft 572 kts 62°
2026-04-29 22:12 29.25178 111.35702 37285 ft 572 kts 62°
2026-04-29 22:13 29.28117 111.44125 37287 ft 572 kts 62°
2026-04-29 22:13 29.31063 111.52589 37285 ft 572 kts 63°
2026-04-29 22:14 29.34016 111.61066 37286 ft 571 kts 61°
2026-04-29 22:14 29.37587 111.69084 37282 ft 559 kts 50°
2026-04-29 22:15 29.41891 111.76498 37284 ft 557 kts 48°
2026-04-29 22:15 29.46201 111.83866 37293 ft 558 kts 49°
2026-04-29 22:16 29.50479 111.91318 37282 ft 559 kts 49°
2026-04-29 22:16 29.54742 111.98820 37280 ft 560 kts 50°
2026-04-29 22:17 29.58975 112.06281 37283 ft 561 kts 49°
2026-04-29 22:17 29.63251 112.13819 37280 ft 562 kts 50°
2026-04-29 22:18 29.67521 112.21360 37283 ft 562 kts 50°
2026-04-29 22:18 29.71790 112.28913 37285 ft 563 kts 50°
2026-04-29 22:19 29.76052 112.36475 37283 ft 564 kts 50°
2026-04-29 22:19 29.80283 112.44033 37281 ft 565 kts 50°
2026-04-29 22:20 29.84536 112.51653 37283 ft 566 kts 51°
2026-04-29 22:20 29.88794 112.59288 37280 ft 566 kts 51°
2026-04-29 22:21 29.93063 112.66956 37285 ft 567 kts 51°
2026-04-29 22:21 29.97295 112.74572 37284 ft 568 kts 51°
2026-04-29 22:22 30.01555 112.82253 37285 ft 568 kts 52°
2026-04-29 22:22 30.05814 112.89947 37289 ft 568 kts 52°
2026-04-29 22:23 30.10067 112.97645 37277 ft 568 kts 52°
2026-04-29 22:23 30.14320 113.05359 37285 ft 569 kts 52°
2026-04-29 22:24 30.18540 113.13028 37290 ft 569 kts 53°
2026-04-29 22:24 30.22789 113.20750 37283 ft 569 kts 52°
2026-04-29 22:25 30.27092 113.28424 37287 ft 568 kts 52°
2026-04-29 22:25 30.31409 113.36081 37286 ft 568 kts 52°
2026-04-29 22:26 30.35690 113.43715 37291 ft 568 kts 53°
2026-04-29 22:26 30.39984 113.51407 37285 ft 568 kts 53°
2026-04-29 22:27 30.44267 113.59097 37282 ft 568 kts 53°
2026-04-29 22:27 30.48551 113.66798 37288 ft 567 kts 53°
2026-04-29 22:28 30.52824 113.74495 37291 ft 567 kts 53°
2026-04-29 22:28 30.57068 113.82155 37288 ft 567 kts 54°
2026-04-29 22:29 30.61335 113.89852 37289 ft 567 kts 54°
2026-04-29 22:29 30.65609 113.97558 37285 ft 567 kts 54°
2026-04-29 22:30 30.69889 114.05272 37289 ft 567 kts 54°
2026-04-29 22:30 30.74132 114.12933 37288 ft 567 kts 54°
2026-04-29 22:31 30.78231 114.20773 37294 ft 569 kts 60°
2026-04-29 22:31 30.81299 114.29279 37286 ft 571 kts 69°
2026-04-29 22:32 30.83986 114.37946 37288 ft 572 kts 69°
2026-04-29 22:32 30.86761 114.46620 37286 ft 572 kts 69°
2026-04-29 22:33 30.89576 114.55304 37291 ft 573 kts 69°
2026-04-29 22:33 30.92392 114.63997 37287 ft 573 kts 69°
2026-04-29 22:34 30.95184 114.72658 37301 ft 574 kts 69°
2026-04-29 22:34 30.97976 114.81347 37289 ft 574 kts 69°
2026-04-29 22:35 31.00776 114.90082 37296 ft 574 kts 69°
2026-04-29 22:35 31.03577 114.98818 37286 ft 575 kts 69°
2026-04-29 22:35 31.04967 115.03130 37597 ft 574 kts 67°
2026-04-29 22:36 31.06375 115.07497 37468 ft 576 kts 67°
2026-04-29 22:36 31.09181 115.16219 37327 ft 573 kts 67°
2026-04-29 22:37 31.11952 115.24907 37303 ft 568 kts 68°
2026-04-29 22:37 31.14658 115.33541 37294 ft 563 kts 67°
2026-04-29 22:38 31.17429 115.42087 37310 ft 561 kts 67°
2026-04-29 22:38 31.20183 115.50561 37308 ft 563 kts 67°
2026-04-29 22:39 31.22945 115.59141 37316 ft 566 kts 67°
2026-04-29 22:39 31.25708 115.67778 37316 ft 569 kts 68°
2026-04-29 22:40 31.28490 115.76485 37273 ft 571 kts 68°
2026-04-29 22:40 31.31257 115.85146 37300 ft 571 kts 68°
2026-04-29 22:41 31.34057 115.93849 37302 ft 572 kts 68°
2026-04-29 22:41 31.36897 116.02541 37306 ft 572 kts 68°
2026-04-29 22:42 31.39723 116.11198 37283 ft 573 kts 68°
2026-04-29 22:42 31.42552 116.19915 37288 ft 572 kts 68°
2026-04-29 22:43 31.45365 116.28623 37278 ft 571 kts 68°
2026-04-29 22:43 31.48177 116.37349 37276 ft 571 kts 68°
2026-04-29 22:44 31.50961 116.46009 37281 ft 571 kts 68°
2026-04-29 22:44 31.53755 116.54725 37279 ft 571 kts 68°
2026-04-29 22:45 31.56545 116.63451 37277 ft 571 kts 68°
2026-04-29 22:45 31.59331 116.72188 37279 ft 572 kts 69°
2026-04-29 22:46 31.62098 116.80891 37269 ft 572 kts 69°
2026-04-29 22:46 31.64876 116.89650 37268 ft 572 kts 69°
2026-04-29 22:47 31.67648 116.98415 37272 ft 573 kts 69°
2026-04-29 22:47 31.70405 117.07216 37272 ft 573 kts 69°
2026-04-29 22:48 31.73110 117.15980 37276 ft 574 kts 70°
2026-04-29 22:48 31.75723 117.24840 37266 ft 574 kts 76°
2026-04-29 22:49 31.76981 117.34074 37276 ft 571 kts 89°
2026-04-29 22:49 31.76765 117.43306 37275 ft 567 kts 99°
2026-04-29 22:50 31.76014 117.52530 37268 ft 567 kts 99°
2026-04-29 22:50 31.75295 117.61776 37271 ft 569 kts 99°
2026-04-29 22:51 31.74637 117.71051 37270 ft 570 kts 98°
2026-04-29 22:51 31.73656 117.84979 37277 ft 570 kts 99°
2026-04-29 22:52 31.72983 117.94275 37279 ft 571 kts 99°
2026-04-29 22:52 31.72418 118.02005 37282 ft 571 kts 99°
2026-04-29 22:53 31.71620 118.12870 37283 ft 571 kts 99°
2026-04-29 22:53 31.71079 118.20554 37274 ft 571 kts 99°
2026-04-29 22:54 31.70439 118.29848 37282 ft 571 kts 99°
2026-04-29 22:54 31.69786 118.39163 37278 ft 571 kts 99°
2026-04-29 22:55 31.69122 118.48465 37293 ft 571 kts 99°
2026-04-29 22:55 31.68449 118.57772 37285 ft 572 kts 99°
2026-04-29 22:56 31.67770 118.67078 37287 ft 572 kts 99°
2026-04-29 22:56 31.67088 118.76346 37278 ft 573 kts 100°
2026-04-29 22:57 31.66277 118.87243 37283 ft 573 kts 100°
2026-04-29 22:57 31.65696 118.94989 37287 ft 573 kts 100°
2026-04-29 22:58 31.64981 119.04305 37282 ft 572 kts 100°
2026-04-29 22:58 31.64497 119.13592 37295 ft 575 kts 97°
2026-04-29 22:59 31.64129 119.22678 37286 ft 575 kts 98°
2026-04-29 22:59 31.63694 119.32042 37279 ft 575 kts 98°
2026-04-29 23:00 31.63252 119.41402 37275 ft 575 kts 98°
2026-04-29 23:00 31.62804 119.50774 37284 ft 575 kts 98°
2026-04-29 23:01 31.62351 119.60144 37287 ft 575 kts 99°
2026-04-29 23:01 31.61895 119.69453 37285 ft 575 kts 99°
2026-04-29 23:02 31.61457 119.78858 37282 ft 576 kts 99°
2026-04-29 23:02 31.61026 119.88249 37281 ft 576 kts 99°
2026-04-29 23:03 31.60587 119.97575 37283 ft 576 kts 99°
2026-04-29 23:03 31.60134 120.06974 37279 ft 576 kts 99°
2026-04-29 23:04 31.59675 120.16354 37274 ft 576 kts 99°
2026-04-29 23:04 31.59201 120.25733 37277 ft 575 kts 101°
2026-04-29 23:05 31.57942 120.34890 37284 ft 564 kts 111°
2026-04-29 23:05 31.55581 120.43482 37280 ft 555 kts 118°
2026-04-29 23:06 31.52956 120.51995 37272 ft 555 kts 118°
2026-04-29 23:06 31.50362 120.60554 37268 ft 556 kts 118°
2026-04-29 23:07 31.47820 120.69066 37273 ft 557 kts 118°
2026-04-29 23:07 31.45266 120.77617 37279 ft 557 kts 118°
2026-04-29 23:08 31.42699 120.86168 37270 ft 557 kts 118°
2026-04-29 23:08 31.40121 120.94723 37271 ft 556 kts 119°
2026-04-29 23:09 31.37541 121.03266 37251 ft 556 kts 119°
2026-04-29 23:09 31.34958 121.11794 37246 ft 556 kts 119°
2026-04-29 23:10 31.32309 121.20279 37244 ft 555 kts 120°
2026-04-29 23:10 31.29630 121.28759 37244 ft 555 kts 120°
2026-04-29 23:11 31.27167 121.37308 37256 ft 562 kts 115°
2026-04-29 23:11 31.25052 121.46127 37255 ft 564 kts 114°
2026-04-29 23:12 31.22941 121.54963 37251 ft 564 kts 115°
2026-04-29 23:12 31.20777 121.63791 37251 ft 564 kts 115°
2026-04-29 23:13 31.18707 121.72593 37242 ft 572 kts 109°
2026-04-29 23:13 31.18148 121.81989 37264 ft 588 kts 92°
2026-04-29 23:14 31.19477 121.91506 37267 ft 597 kts 80°
2026-04-29 23:14 31.21455 122.00942 37255 ft 598 kts 79°
2026-04-29 23:15 31.23351 122.10358 37256 ft 598 kts 81°
2026-04-29 23:15 31.25151 122.19862 37250 ft 598 kts 81°
2026-04-29 23:16 31.26928 122.29358 37251 ft 598 kts 81°
2026-04-29 23:16 31.28714 122.38849 37243 ft 597 kts 81°
2026-04-29 23:17 31.30504 122.48337 37245 ft 597 kts 81°
2026-04-29 23:17 31.32333 122.57825 37245 ft 597 kts 81°
2026-04-29 23:18 31.34155 122.67292 37239 ft 597 kts 81°
2026-04-29 23:18 31.35964 122.76776 37240 ft 596 kts 81°
2026-04-29 23:19 31.37774 122.86185 37231 ft 596 kts 81°
2026-04-29 23:19 31.39616 122.95648 37232 ft 596 kts 81°
2026-04-29 23:20 31.41450 123.05118 37227 ft 595 kts 81°
2026-04-29 23:20 31.43270 123.14595 37224 ft 595 kts 81°
2026-04-29 23:21 31.45069 123.24009 37223 ft 595 kts 81°
2026-04-29 23:21 31.46872 123.33475 37219 ft 594 kts 81°
2026-04-29 23:22 31.48663 123.42923 37218 ft 594 kts 81°
2026-04-29 23:22 31.50460 123.52369 37220 ft 594 kts 80°
2026-04-29 23:23 31.52501 123.61707 37218 ft 595 kts 78°
2026-04-29 23:23 31.54652 123.71080 37217 ft 595 kts 78°
2026-04-29 23:24 31.56741 123.80464 37212 ft 594 kts 79°
2026-04-29 23:24 31.58792 123.89870 37209 ft 594 kts 79°
2026-04-29 23:25 31.60826 123.99201 37206 ft 594 kts 79°
2026-04-29 23:25 31.62903 124.08590 37211 ft 594 kts 79°
2026-04-29 23:26 31.65012 124.17977 37207 ft 593 kts 79°
2026-04-29 23:26 31.67093 124.27289 37206 ft 593 kts 79°
2026-04-29 23:27 31.69171 124.36660 37196 ft 593 kts 79°
2026-04-29 23:27 31.71240 124.46040 37195 ft 592 kts 79°
2026-04-29 23:28 31.73301 124.55415 37196 ft 592 kts 79°
2026-04-29 23:28 31.75354 124.64783 37194 ft 591 kts 79°
2026-04-29 23:29 31.77383 124.74081 37196 ft 591 kts 79°
2026-04-29 23:29 31.79415 124.83424 37197 ft 590 kts 79°
2026-04-29 23:30 31.81397 124.92791 37189 ft 587 kts 83°
2026-04-29 23:30 31.82098 125.02238 37193 ft 575 kts 97°
2026-04-29 23:31 31.81297 125.11482 37183 ft 561 kts 109°
2026-04-29 23:31 31.79735 125.20443 37170 ft 560 kts 110°
2026-04-29 23:32 31.78196 125.29375 37169 ft 561 kts 109°
2026-04-29 23:32 31.76710 125.38406 37171 ft 561 kts 109°
2026-04-29 23:33 31.75237 125.47413 37180 ft 562 kts 109°
2026-04-29 23:33 31.73750 125.56408 37159 ft 561 kts 109°
2026-04-29 23:34 31.72927 125.65619 37154 ft 575 kts 95°
2026-04-29 23:34 31.73796 125.75029 37151 ft 586 kts 81°
2026-04-29 23:35 31.75941 125.84236 37160 ft 588 kts 77°
2026-04-29 23:35 31.78067 125.93508 37163 ft 588 kts 80°
2026-04-29 23:36 31.80081 126.02860 37153 ft 589 kts 79°
2026-04-29 23:36 31.82120 126.12208 37142 ft 589 kts 79°
2026-04-29 23:37 31.84144 126.21482 37132 ft 588 kts 79°
2026-04-29 23:37 31.86165 126.30796 37139 ft 587 kts 80°
2026-04-29 23:38 31.88173 126.40102 37135 ft 587 kts 80°
2026-04-29 23:38 31.90178 126.49419 37146 ft 586 kts 80°
2026-04-29 23:39 31.92203 126.58644 37139 ft 585 kts 79°
2026-04-29 23:39 31.94262 126.67919 37136 ft 585 kts 79°
2026-04-29 23:40 31.96305 126.77188 37136 ft 585 kts 80°
2026-04-29 23:40 31.98338 126.86487 37139 ft 585 kts 80°
2026-04-29 23:41 32.00359 126.95767 37131 ft 585 kts 80°
2026-04-29 23:41 32.02366 127.05009 37125 ft 585 kts 80°
2026-04-29 23:42 32.04645 127.14236 37129 ft 589 kts 73°
2026-04-29 23:42 32.07383 127.21617 37128 ft 591 kts 67°
2026-04-29 23:43 32.10863 127.30414 37114 ft 591 kts 68°
2026-04-29 23:43 32.14759 127.40739 37117 ft 591 kts 69°
2026-04-29 23:44 32.17517 127.48125 37114 ft 590 kts 69°
2026-04-29 23:44 32.20834 127.57013 37117 ft 590 kts 69°
2026-04-29 23:45 32.24125 127.65838 37121 ft 590 kts 69°
2026-04-29 23:45 32.27425 127.74706 37131 ft 590 kts 69°
2026-04-29 23:46 32.30726 127.83604 37113 ft 590 kts 69°
2026-04-29 23:46 32.34016 127.92497 37114 ft 589 kts 69°
2026-04-29 23:47 32.37268 128.01311 37115 ft 589 kts 69°
2026-04-29 23:47 32.40542 128.10206 37107 ft 588 kts 69°
2026-04-29 23:48 32.43804 128.19092 37112 ft 587 kts 70°
2026-04-29 23:48 32.47057 128.27978 37112 ft 587 kts 70°
2026-04-29 23:49 32.50280 128.36805 37110 ft 587 kts 70°
2026-04-29 23:49 32.53515 128.45687 37109 ft 586 kts 70°
2026-04-29 23:50 32.56738 128.54562 37101 ft 586 kts 70°
2026-04-29 23:51 32.61560 128.67883 37104 ft 585 kts 70°
2026-04-29 23:51 32.64746 128.76712 37100 ft 585 kts 70°
2026-04-29 23:52 32.67636 128.85733 37101 ft 581 kts 79°
2026-04-29 23:52 32.69546 128.95010 37099 ft 577 kts 82°
2026-04-29 23:53 32.71343 129.04307 37100 ft 577 kts 82°
2026-04-29 23:53 32.73196 129.13597 37100 ft 577 kts 81°
2026-04-29 23:54 32.75080 129.22868 37106 ft 577 kts 81°
2026-04-29 23:54 32.76959 129.32137 37104 ft 576 kts 81°
2026-04-29 23:55 32.78811 129.41344 37099 ft 575 kts 82°
2026-04-29 23:55 32.80660 129.50593 37096 ft 574 kts 82°
2026-04-29 23:56 32.82500 129.59828 37105 ft 573 kts 82°
2026-04-29 23:56 32.84320 129.69047 37111 ft 571 kts 83°
2026-04-29 23:57 32.85772 129.78307 37114 ft 568 kts 86°
2026-04-29 23:57 32.87064 129.87568 37120 ft 567 kts 86°
2026-04-29 23:58 32.88353 129.96773 37116 ft 567 kts 86°
2026-04-29 23:58 32.89677 130.06031 37133 ft 568 kts 86°
2026-04-29 23:59 32.91008 130.15299 37114 ft 568 kts 86°
2026-04-29 23:59 32.92335 130.24585 37116 ft 568 kts 86°
2026-04-30 00:00 32.93651 130.33879 37117 ft 568 kts 86°
2026-04-30 00:00 32.94949 130.43103 37123 ft 568 kts 86°
2026-04-30 00:01 32.96250 130.52398 37122 ft 569 kts 86°
2026-04-30 00:01 32.97544 130.61693 37108 ft 569 kts 86°
2026-04-30 00:02 32.98831 130.70984 37107 ft 568 kts 86°
2026-04-30 00:02 33.00102 130.80217 37107 ft 567 kts 86°
2026-04-30 00:03 33.01370 130.89483 37097 ft 566 kts 86°
2026-04-30 00:03 33.02631 130.98745 37106 ft 565 kts 86°
2026-04-30 00:04 33.03884 131.07994 37135 ft 564 kts 86°
2026-04-30 00:04 33.05124 131.17230 37158 ft 565 kts 86°
2026-04-30 00:05 33.06355 131.26430 37174 ft 566 kts 86°
2026-04-30 00:05 33.07593 131.35721 37164 ft 567 kts 86°
2026-04-30 00:06 33.08824 131.45035 37179 ft 568 kts 86°
2026-04-30 00:06 33.10049 131.54346 37190 ft 569 kts 86°
2026-04-30 00:07 33.11270 131.63682 37192 ft 568 kts 86°
2026-04-30 00:07 33.12475 131.72956 37186 ft 569 kts 86°
2026-04-30 00:08 33.13679 131.82269 37178 ft 568 kts 86°
2026-04-30 00:08 33.14878 131.91594 37182 ft 568 kts 86°
2026-04-30 00:09 33.16066 132.00901 37192 ft 568 kts 86°
2026-04-30 00:09 33.17249 132.10221 37182 ft 568 kts 86°
2026-04-30 00:10 33.18423 132.19571 37187 ft 569 kts 86°
2026-04-30 00:10 33.19578 132.28919 37190 ft 570 kts 86°
2026-04-30 00:11 33.20722 132.38230 37186 ft 571 kts 86°
2026-04-30 00:11 33.21871 132.47617 37186 ft 572 kts 86°
2026-04-30 00:12 33.23019 132.57048 37197 ft 573 kts 86°
2026-04-30 00:12 33.24168 132.66473 37168 ft 573 kts 86°
2026-04-30 00:13 33.25323 132.75836 37215 ft 573 kts 86°
2026-04-30 00:13 33.26480 132.85274 37193 ft 574 kts 86°
2026-04-30 00:14 33.27629 132.94718 37203 ft 574 kts 86°
2026-04-30 00:14 33.28769 133.04181 37215 ft 575 kts 85°
2026-04-30 00:15 33.29897 133.13664 37217 ft 576 kts 86°
2026-04-30 00:15 33.30993 133.23089 37224 ft 577 kts 86°
2026-04-30 00:16 33.32093 133.32593 37212 ft 576 kts 86°
2026-04-30 00:16 33.33185 133.42085 37217 ft 575 kts 86°
2026-04-30 00:17 33.34267 133.51546 37208 ft 573 kts 86°
2026-04-30 00:17 33.35341 133.60990 37206 ft 573 kts 86°
2026-04-30 00:18 33.36407 133.70429 37204 ft 572 kts 85°
2026-04-30 00:18 33.37460 133.79828 37213 ft 572 kts 85°
2026-04-30 00:19 33.38510 133.89266 37221 ft 573 kts 85°
2026-04-30 00:19 33.39557 133.98739 37224 ft 574 kts 85°
2026-04-30 00:20 33.40596 134.08212 37237 ft 575 kts 85°
2026-04-30 00:20 33.41632 134.17713 37246 ft 575 kts 85°
2026-04-30 00:21 33.42651 134.27139 37245 ft 575 kts 85°
2026-04-30 00:21 33.43671 134.36643 37243 ft 576 kts 85°
2026-04-30 00:22 33.44685 134.46149 37246 ft 576 kts 85°
2026-04-30 00:22 33.45695 134.55693 37255 ft 576 kts 85°
2026-04-30 00:23 33.46691 134.65225 37250 ft 577 kts 85°
2026-04-30 00:23 33.47680 134.74771 37253 ft 577 kts 85°
2026-04-30 00:24 33.48663 134.84313 37251 ft 577 kts 85°
2026-04-30 00:24 33.49636 134.93818 37251 ft 578 kts 85°
2026-04-30 00:25 33.50611 135.03396 37250 ft 579 kts 85°
2026-04-30 00:25 33.51585 135.12961 37237 ft 579 kts 85°
2026-04-30 00:26 33.52557 135.22555 37238 ft 579 kts 85°
2026-04-30 00:26 33.53512 135.32067 37236 ft 578 kts 85°
2026-04-30 00:27 33.54466 135.41651 37236 ft 578 kts 85°
2026-04-30 00:27 33.55411 135.51233 37243 ft 578 kts 85°
2026-04-30 00:28 33.56347 135.60794 37245 ft 577 kts 85°
2026-04-30 00:28 33.57278 135.70366 37258 ft 577 kts 85°
2026-04-30 00:29 33.58193 135.79876 37275 ft 576 kts 85°
2026-04-30 00:29 33.59105 135.89423 37271 ft 576 kts 85°
2026-04-30 00:30 33.60010 135.98969 37282 ft 576 kts 85°
2026-04-30 00:30 33.60908 136.08522 37289 ft 576 kts 85°
2026-04-30 00:31 33.61795 136.18035 37287 ft 576 kts 85°
2026-04-30 00:31 33.62678 136.27596 37290 ft 576 kts 85°
2026-04-30 00:32 33.63555 136.37172 37287 ft 577 kts 85°
2026-04-30 00:32 33.64424 136.46743 37282 ft 577 kts 85°
2026-04-30 00:33 33.65141 136.54696 37286 ft 577 kts 85°
2026-04-30 00:33 33.65996 136.64267 37285 ft 577 kts 85°
2026-04-30 00:34 33.66847 136.73863 37284 ft 577 kts 85°
2026-04-30 00:34 33.67689 136.83459 37281 ft 578 kts 85°
2026-04-30 00:35 33.68525 136.93061 37282 ft 578 kts 85°
2026-04-30 00:35 33.69349 137.02611 37283 ft 579 kts 85°
2026-04-30 00:36 33.70147 137.12230 37274 ft 579 kts 87°
2026-04-30 00:36 33.70521 137.21913 37280 ft 578 kts 89°
2026-04-30 00:37 33.70752 137.31576 37275 ft 578 kts 89°
2026-04-30 00:37 33.70995 137.41184 37274 ft 578 kts 89°
2026-04-30 00:38 33.71268 137.50838 37273 ft 578 kts 89°
2026-04-30 00:38 33.71544 137.60489 37275 ft 578 kts 89°
2026-04-30 00:39 33.71808 137.70079 37271 ft 578 kts 89°
2026-04-30 00:39 33.72063 137.79733 37275 ft 578 kts 89°
2026-04-30 00:40 33.72309 137.89390 37272 ft 578 kts 89°
2026-04-30 00:40 33.72549 137.99064 37273 ft 579 kts 89°
2026-04-30 00:41 33.72780 138.08684 37273 ft 580 kts 89°
2026-04-30 00:41 33.73006 138.18397 37274 ft 580 kts 89°
2026-04-30 00:42 33.73225 138.28103 37271 ft 581 kts 89°
2026-04-30 00:42 33.73435 138.37811 37275 ft 581 kts 89°
2026-04-30 00:43 33.73640 138.47544 37275 ft 582 kts 89°
2026-04-30 00:43 33.73830 138.57200 37276 ft 582 kts 89°
2026-04-30 00:44 33.74003 138.66941 37275 ft 582 kts 89°
2026-04-30 00:44 33.74172 138.76684 37275 ft 583 kts 89°
2026-04-30 00:45 33.74676 138.86373 37275 ft 581 kts 77°
2026-04-30 00:45 33.76992 138.95601 37290 ft 574 kts 63°
2026-04-30 00:46 33.80856 139.03901 37296 ft 566 kts 52°
2026-04-30 00:46 33.85057 139.11940 37299 ft 568 kts 52°
2026-04-30 00:47 33.89178 139.20024 37301 ft 570 kts 53°
2026-04-30 00:47 33.93268 139.28228 37295 ft 571 kts 53°
2026-04-30 00:48 33.97317 139.36393 37247 ft 556 kts 53°
2026-04-30 00:48 34.01277 139.44353 37211 ft 563 kts 53°
2026-04-30 00:49 34.05340 139.52530 37189 ft 569 kts 53°
2026-04-30 00:49 34.09749 139.60335 37202 ft 557 kts 44°
2026-04-30 00:50 34.14634 139.67578 37193 ft 554 kts 43°
2026-04-30 00:50 34.19503 139.74778 37205 ft 554 kts 43°
2026-04-30 00:51 34.24333 139.82057 37213 ft 556 kts 44°
2026-04-30 00:51 34.29126 139.89336 37221 ft 558 kts 44°
2026-04-30 00:52 34.33981 139.96707 37214 ft 560 kts 44°
2026-04-30 00:52 34.36412 140.00402 36971 ft 564 kts 44°
2026-04-30 00:52 34.38885 140.04165 36150 ft 571 kts 45°
2026-04-30 00:52 34.41346 140.07930 35172 ft 572 kts 45°
2026-04-30 00:53 34.43820 140.11712 34197 ft 573 kts 45°
2026-04-30 00:53 34.46259 140.15559 33011 ft 577 kts 49°
2026-04-30 00:53 34.48476 140.19606 32114 ft 576 kts 53°
2026-04-30 00:53 34.50590 140.23718 31262 ft 573 kts 54°
2026-04-30 00:54 34.52665 140.27834 30515 ft 567 kts 55°
2026-04-30 00:54 34.54704 140.31882 29850 ft 560 kts 54°
2026-04-30 00:54 34.56709 140.35832 29179 ft 553 kts 54°
2026-04-30 00:54 34.58726 140.39777 28476 ft 547 kts 54°
2026-04-30 00:55 34.60733 140.43679 27749 ft 542 kts 54°
2026-04-30 00:55 34.62726 140.47547 27026 ft 538 kts 54°
2026-04-30 00:55 34.66659 140.55202 25725 ft 528 kts 54°
2026-04-30 00:56 34.68597 140.58984 25100 ft 524 kts 54°
2026-04-30 00:56 34.70510 140.62725 24494 ft 519 kts 54°
2026-04-30 00:56 34.72386 140.66397 23929 ft 515 kts 54°
2026-04-30 00:56 34.74202 140.70129 23254 ft 512 kts 59°
2026-04-30 00:57 34.75795 140.73993 22643 ft 508 kts 62°
2026-04-30 00:57 34.77279 140.77866 22093 ft 501 kts 63°
2026-04-30 00:57 34.78767 140.81668 21546 ft 494 kts 62°
2026-04-30 00:57 34.80278 140.85392 20977 ft 487 kts 60°
2026-04-30 00:58 34.82061 140.88837 20251 ft 476 kts 46°
2026-04-30 00:58 34.84476 140.91503 19648 ft 462 kts 28°
2026-04-30 00:58 34.87170 140.93369 19126 ft 447 kts 22°
2026-04-30 00:58 34.89907 140.95155 18554 ft 444 kts 22°
2026-04-30 00:59 34.92614 140.96940 17971 ft 440 kts 23°
2026-04-30 00:59 34.95280 140.98723 17465 ft 434 kts 24°
2026-04-30 00:59 34.97902 141.00496 16958 ft 428 kts 24°
2026-04-30 00:59 35.00487 141.02255 16485 ft 422 kts 24°
2026-04-30 01:00 35.03034 141.03994 15999 ft 417 kts 24°
2026-04-30 01:00 35.05555 141.05717 15519 ft 412 kts 25°
2026-04-30 01:00 35.08045 141.07420 15032 ft 408 kts 25°
2026-04-30 01:00 35.10500 141.09101 14610 ft 402 kts 25°
2026-04-30 01:01 35.12921 141.10759 14182 ft 396 kts 26°
2026-04-30 01:01 35.15306 141.12393 13760 ft 390 kts 26°
2026-04-30 01:01 35.17632 141.13990 13660 ft 375 kts 26°
2026-04-30 01:01 35.19860 141.15522 13566 ft 361 kts 25°
2026-04-30 01:02 35.22074 141.16736 13449 ft 339 kts 13°
2026-04-30 01:02 35.24321 141.17402 13380 ft 325 kts
2026-04-30 01:02 35.26462 141.17981 13324 ft 314 kts
2026-04-30 01:02 35.28560 141.18562 13239 ft 303 kts
2026-04-30 01:03 35.30586 141.19144 13147 ft 294 kts
2026-04-30 01:03 35.32552 141.19722 12976 ft 288 kts
2026-04-30 01:03 35.34496 141.20302 12719 ft 285 kts 10°
2026-04-30 01:03 35.36419 141.20881 12435 ft 284 kts 10°
2026-04-30 01:04 35.38317 141.21453 12142 ft 283 kts 10°
2026-04-30 01:04 35.40231 141.21954 11786 ft 277 kts
2026-04-30 01:04 35.42111 141.21610 11336 ft 271 kts 338°
2026-04-30 01:04 35.43889 141.20817 10997 ft 272 kts 337°
2026-04-30 01:05 35.45663 141.20024 10733 ft 270 kts 336°
2026-04-30 01:05 35.47427 141.19236 10476 ft 269 kts 337°
2026-04-30 01:05 35.49182 141.18454 10203 ft 268 kts 337°
2026-04-30 01:05 35.50938 141.17673 9904 ft 268 kts 337°
2026-04-30 01:06 35.52671 141.16903 9596 ft 267 kts 337°
2026-04-30 01:06 35.54420 141.16129 9302 ft 267 kts 337°
2026-04-30 01:06 35.56165 141.15357 9027 ft 265 kts 337°
2026-04-30 01:06 35.57897 141.14591 8746 ft 264 kts 337°
2026-04-30 01:07 35.59625 141.13828 8459 ft 263 kts 337°
2026-04-30 01:07 35.61300 141.13031 8128 ft 258 kts 328°
2026-04-30 01:07 35.62598 141.11566 7712 ft 255 kts 299°
2026-04-30 01:07 35.63236 141.09580 7489 ft 248 kts 279°
2026-04-30 01:08 35.63379 141.07460 7242 ft 246 kts 272°
2026-04-30 01:08 35.63450 141.05392 7167 ft 240 kts 272°
2026-04-30 01:08 35.63518 141.03330 7097 ft 244 kts 272°
2026-04-30 01:08 35.63591 141.01210 7033 ft 250 kts 272°
2026-04-30 01:09 35.63667 140.99082 6960 ft 253 kts 272°
2026-04-30 01:09 35.63747 140.96908 6890 ft 254 kts 272°
2026-04-30 01:09 35.63830 140.94750 6820 ft 252 kts 272°
2026-04-30 01:09 35.63913 140.92587 6753 ft 252 kts 272°
2026-04-30 01:10 35.63995 140.90443 6678 ft 251 kts 272°
2026-04-30 01:10 35.64069 140.88325 6597 ft 248 kts 269°
2026-04-30 01:10 35.63672 140.86294 6531 ft 248 kts 242°
2026-04-30 01:10 35.62587 140.84647 6466 ft 252 kts 222°
2026-04-30 01:11 35.61162 140.83361 6419 ft 254 kts 217°
2026-04-30 01:11 35.59708 140.82101 6342 ft 256 kts 217°
2026-04-30 01:11 35.58254 140.80837 6269 ft 256 kts 218°
2026-04-30 01:11 35.56806 140.79570 6195 ft 256 kts 217°
2026-04-30 01:12 35.55379 140.78317 6131 ft 254 kts 218°
2026-04-30 01:12 35.53945 140.77056 6050 ft 252 kts 218°
2026-04-30 01:12 35.52521 140.75800 5997 ft 251 kts 218°
2026-04-30 01:12 35.51102 140.74546 5929 ft 250 kts 217°
2026-04-30 01:13 35.49689 140.73297 5875 ft 250 kts 218°
2026-04-30 01:13 35.48272 140.72042 5835 ft 251 kts 217°
2026-04-30 01:13 35.46850 140.70780 5822 ft 254 kts 217°
2026-04-30 01:13 35.45412 140.69504 5799 ft 256 kts 217°
2026-04-30 01:14 35.43974 140.68226 5772 ft 254 kts 217°
2026-04-30 01:14 35.42544 140.66953 5774 ft 253 kts 217°
2026-04-30 01:14 35.41128 140.65690 5775 ft 251 kts 217°
2026-04-30 01:14 35.39730 140.64442 5770 ft 251 kts 217°
2026-04-30 01:15 35.38320 140.63182 5770 ft 251 kts 217°
2026-04-30 01:15 35.36912 140.61920 5770 ft 251 kts 217°
2026-04-30 01:15 35.35496 140.60651 5773 ft 251 kts 217°
2026-04-30 01:15 35.34083 140.59382 5773 ft 252 kts 217°
2026-04-30 01:16 35.32668 140.58110 5777 ft 253 kts 217°
2026-04-30 01:16 35.31245 140.56831 5775 ft 254 kts 217°
2026-04-30 01:16 35.29839 140.55563 5786 ft 255 kts 217°
2026-04-30 01:16 35.28392 140.54258 5786 ft 256 kts 217°
2026-04-30 01:17 35.26977 140.52980 5786 ft 256 kts 217°
2026-04-30 01:17 35.25541 140.51679 5787 ft 256 kts 217°
2026-04-30 01:17 35.24103 140.50378 5785 ft 257 kts 217°
2026-04-30 01:17 35.22667 140.49077 5786 ft 257 kts 217°
2026-04-30 01:18 35.21228 140.47771 5790 ft 257 kts 217°
2026-04-30 01:18 35.19791 140.46464 5765 ft 263 kts 217°
2026-04-30 01:18 35.18248 140.45058 5821 ft 303 kts 217°
2026-04-30 01:18 35.16546 140.43504 5814 ft 302 kts 217°
2026-04-30 01:19 35.14887 140.41987 5725 ft 294 kts 217°
2026-04-30 01:19 35.13226 140.40466 5718 ft 309 kts 217°
2026-04-30 01:19 35.11366 140.38760 5766 ft 359 kts 217°
2026-04-30 01:19 35.09256 140.36823 6031 ft 394 kts 217°
2026-04-30 01:20 35.07152 140.34892 6707 ft 357 kts 218°
2026-04-30 01:20 35.05247 140.33145 6832 ft 333 kts 218°
2026-04-30 01:20 35.03440 140.31489 6741 ft 317 kts 218°
2026-04-30 01:20 35.01706 140.29899 6628 ft 304 kts 218°
2026-04-30 01:21 35.00068 140.28399 6513 ft 292 kts 218°
2026-04-30 01:21 34.98472 140.26937 6383 ft 282 kts 217°
2026-04-30 01:21 34.96934 140.25527 6266 ft 271 kts 218°
2026-04-30 01:21 34.95449 140.24166 6119 ft 263 kts 217°
2026-04-30 01:22 34.94016 140.22851 6089 ft 253 kts 217°
2026-04-30 01:22 34.93082 140.21992 6087 ft 254 kts 217°
2026-04-30 01:22 34.91674 140.20695 6084 ft 253 kts 217°
2026-04-30 01:22 34.90277 140.19406 6081 ft 252 kts 217°
2026-04-30 01:23 34.88885 140.18120 6074 ft 251 kts 217°
2026-04-30 01:23 34.87495 140.16834 6075 ft 251 kts 217°
2026-04-30 01:23 34.86106 140.15549 6077 ft 251 kts 217°
2026-04-30 01:23 34.84713 140.14259 6077 ft 251 kts 217°
2026-04-30 01:24 34.83318 140.12965 6075 ft 252 kts 217°
2026-04-30 01:24 34.81923 140.11668 6072 ft 252 kts 218°
2026-04-30 01:24 34.80545 140.10384 6076 ft 253 kts 218°
2026-04-30 01:24 34.79150 140.09082 6071 ft 253 kts 218°
2026-04-30 01:25 34.77752 140.07775 6073 ft 254 kts 218°
2026-04-30 01:25 34.76353 140.06464 6076 ft 254 kts 218°
2026-04-30 01:25 34.74952 140.05150 6071 ft 254 kts 218°
2026-04-30 01:25 34.73555 140.03839 6067 ft 254 kts 218°
2026-04-30 01:26 34.72152 140.02520 6072 ft 254 kts 218°
2026-04-30 01:26 34.70754 140.01204 6072 ft 255 kts 218°
2026-04-30 01:26 34.69353 139.99884 6071 ft 255 kts 218°
2026-04-30 01:26 34.67947 139.98557 6067 ft 257 kts 218°
2026-04-30 01:27 34.66486 139.97174 6073 ft 284 kts 218°
2026-04-30 01:27 34.64832 139.95610 6095 ft 305 kts 218°
2026-04-30 01:27 34.63190 139.94054 6047 ft 293 kts 218°
2026-04-30 01:27 34.61614 139.92558 5986 ft 292 kts 218°
2026-04-30 01:28 34.59948 139.90975 6017 ft 325 kts 218°
2026-04-30 01:28 34.58038 139.89162 6064 ft 371 kts 218°
2026-04-30 01:28 34.55936 139.87168 6422 ft 379 kts 218°
2026-04-30 01:28 34.53940 139.85273 6895 ft 361 kts 218°
2026-04-30 01:29 34.51958 139.83390 6802 ft 359 kts 218°
2026-04-30 01:29 34.50011 139.81537 6530 ft 351 kts 218°
2026-04-30 01:29 34.48128 139.79741 6348 ft 336 kts 218°
2026-04-30 01:29 34.46333 139.78025 6229 ft 321 kts 217°
2026-04-30 01:30 34.44643 139.76404 6133 ft 307 kts 217°
2026-04-30 01:30 34.43008 139.74829 6051 ft 294 kts 217°
2026-04-30 01:30 34.41439 139.73315 5968 ft 283 kts 217°
2026-04-30 01:30 34.39930 139.71849 5854 ft 273 kts 217°
2026-04-30 01:31 34.38475 139.70433 5723 ft 265 kts 217°
2026-04-30 01:31 34.37054 139.69046 5486 ft 260 kts 216°
2026-04-30 01:31 34.35649 139.67669 5277 ft 257 kts 216°
2026-04-30 01:31 34.34278 139.66320 5232 ft 254 kts 216°
2026-04-30 01:32 34.32890 139.64953 5218 ft 260 kts 216°
2026-04-30 01:32 34.31490 139.63576 5217 ft 266 kts 216°
2026-04-30 01:32 34.30051 139.62157 5210 ft 267 kts 216°
2026-04-30 01:32 34.28616 139.60742 5202 ft 264 kts 216°
2026-04-30 01:33 34.27198 139.59338 5210 ft 263 kts 215°
2026-04-30 01:33 34.25780 139.57936 5203 ft 262 kts 215°
2026-04-30 01:33 34.24365 139.56544 5218 ft 263 kts 216°
2026-04-30 01:33 34.22945 139.55143 5194 ft 263 kts 216°
2026-04-30 01:34 34.21526 139.53740 5232 ft 265 kts 216°
2026-04-30 01:34 34.20083 139.52319 5205 ft 269 kts 216°
2026-04-30 01:34 34.18633 139.50890 5215 ft 270 kts 216°
2026-04-30 01:34 34.17183 139.49459 5183 ft 267 kts 215°
2026-04-30 01:35 34.15773 139.48064 5176 ft 263 kts 216°
2026-04-30 01:35 34.14372 139.46668 5162 ft 259 kts 215°
2026-04-30 01:35 34.12981 139.45278 5198 ft 262 kts 215°
2026-04-30 01:35 34.11561 139.43866 5207 ft 266 kts 216°
2026-04-30 01:36 34.10128 139.42443 5209 ft 266 kts 216°
2026-04-30 01:36 34.08700 139.41022 5199 ft 267 kts 216°
2026-04-30 01:36 34.07261 139.39590 5196 ft 266 kts 216°
2026-04-30 01:36 34.05854 139.38187 5196 ft 266 kts 216°
2026-04-30 01:37 34.04426 139.36761 5190 ft 265 kts 216°
2026-04-30 01:37 34.03009 139.35345 5200 ft 264 kts 216°
2026-04-30 01:37 34.01592 139.33926 5209 ft 264 kts 216°
2026-04-30 01:37 34.00175 139.32500 5203 ft 266 kts 216°
2026-04-30 01:38 33.98751 139.31067 5195 ft 267 kts 216°
2026-04-30 01:38 33.97321 139.29627 5191 ft 267 kts 216°
2026-04-30 01:38 33.95896 139.28196 5197 ft 266 kts 216°
2026-04-30 01:38 33.94484 139.26779 5174 ft 262 kts 217°
2026-04-30 01:39 33.93111 139.25393 5186 ft 259 kts 217°
2026-04-30 01:39 33.91720 139.23988 5194 ft 264 kts 216°
2026-04-30 01:39 33.90303 139.22557 5185 ft 265 kts 216°
2026-04-30 01:39 33.88891 139.21129 5190 ft 264 kts 217°
2026-04-30 01:40 33.87489 139.19715 5179 ft 263 kts 217°
2026-04-30 01:40 33.86079 139.18291 5184 ft 264 kts 217°
2026-04-30 01:40 33.84672 139.16868 5175 ft 263 kts 217°
2026-04-30 01:40 33.83277 139.15455 5182 ft 262 kts 217°
2026-04-30 01:41 33.81887 139.14045 5163 ft 261 kts 217°
2026-04-30 01:41 33.80510 139.12643 5170 ft 259 kts 217°
2026-04-30 01:41 33.79154 139.11261 5171 ft 259 kts 217°
2026-04-30 01:41 33.77770 139.09853 5190 ft 264 kts 217°
2026-04-30 01:42 33.76354 139.08413 5188 ft 268 kts 217°
2026-04-30 01:42 33.74935 139.06971 5172 ft 266 kts 217°
2026-04-30 01:42 33.73530 139.05535 5180 ft 265 kts 217°
2026-04-30 01:42 33.72127 139.04101 5180 ft 264 kts 217°
2026-04-30 01:43 33.70725 139.02663 5183 ft 265 kts 217°